パンスターズ彗星

480P/PanSTARRS (2023)

English version
Home page
Updated on May 15, 2024

---------------------------------------------------------------------

・ プロフィール

符号 480P/2023 X6
検出日 2023年12月9日
検出光度 21.5等
検出者 Pan-STARRS 1 telescope (Haleakala)

・ 軌道要素

Epoch 2024 Mar. 31.0 TT = JDT 2460400.5
T 2023 Apr. 22.93756 TT                                 Rudenko
q   3.4725214            (2000.0)            P               Q
n   0.09965202     Peri.  214.25492     +0.11279499     -0.97688309
a   4.6076411      Node   229.97711     +0.95645827     +0.15626192
e   0.2463559      Incl.   13.71750     +0.26919300     -0.14588228
P   9.89
>From 90 observations 2014 Jan. 9-2024 Mar. 12, mean residual 0".2.

・ 光度変化

        m1 = 12.0 + 5 logΔ + 10.0 log r

---------------------------------------------------------------------

軌道要素はM.P.E.C. 2024-G193に掲載されたものです。
光度グラフはComet for Windowsで作成したものです。

---------------------------------------------------------------------

Copyright(C) Seiichi Yoshida (comet@aerith.net). All rights reserved.